Tracking 21076 objects as of 10-Aug-2020
HD Live streaming from Space Station
objects crossing your sky now
Track the most recent launched group of Starlink satellites

BEIDOU 3M5

Track BEIDOU 3M5 now!
BEIDOU 3M5 is classified as:


NORAD ID: 43207
Int'l Code: 2018-018A
Perigee: 21,515.1 km
Apogee: 21,555.1 km
Inclination: 55.2 °
Period: 773.2 minutes
Semi major axis: 27906 km
RCS: Unknown
Launch date: February 12, 2018
Source: People's Republic of China (PRC)
Launch site: Xichang Space Center, China (XSC)
aabbcc
Your satellite tracking list
Your tracking list is empty




NASA's NSSDC Master Catalog

Two Line Element Set (TLE):
1 43207U 18018A   20222.05810691 -.00000013 +00000-0 +00000-0 0  9997
2 43207 055.1915 134.5684 0007173 336.1540 023.8413 01.86231944016922
Source of the keplerian elements: AFSPC